{"data":{"norad_id":52446,"intl_designator":"2022-048D","name":"JILIN-1 GAOFEN 3D29","alt_names":[],"object_type":"PAYLOAD","status":"ACTIVE","operator":null,"country":"PRC","launch_date":"2022-05-05","launch_site_code":"TAISC","launch_vehicle":null,"mission":null,"orbit_class":"UNKNOWN","rcs_meters":null,"size_class":null,"mass_kg":null,"dimensions":null,"purposes":[],"wikipedia_slug":null,"has_3d_model":false,"image_url":null,"decayed_at":null,"tle_current":{"epoch":"2026-05-25T04:14:00.827808Z","epoch_age_seconds":70295,"freshness":"FRESH","line1":"1 52446U 22048D   26145.17639847  .00098710  00000+0  80755-3 0  9992","line2":"2 52446  97.5686 257.4794 0002482 139.2715 220.8733 15.70233475225883","mean_motion":15.70233475,"eccentricity":0.0002482,"inclination_deg":97.5686,"raan_deg":257.4794,"arg_perigee_deg":139.2715,"mean_anomaly_deg":220.8733,"bstar":0.00080755,"rev_number":22588,"period_min":91.706107590147,"perigee_km":356.55721543224,"apogee_km":359.90114760475,"semimajor_km":6736.3661815185,"source":"CELESTRAK","updated_at":"2026-05-25T13:37:57.737998Z"}}}